Showing default

PERSEUS M2, 40037

Orbit data source: Space-Track

PERSEUS M2, 40037 is a payload satellite owned by Canopus Sys (CIS) in SSO that was launched on Thu, 19 Jun 2014 UTC via a DNEPR launch vehicle from the Orenburg, Russia (OREN). Payload-class satellites include a variety of spacecraft equipped with specific instruments for various scientific and technological missions. These include communications satellites like Starlink; space stations such as the ISS; scientific satellites like the Hubble; Earth observation satellites from companies like Planet Labs, Umbra, and HawkEye 360; GPS; miniature CubeSats for education and research; and military/defense satellites.

Loading next visibility...
Identifier
40037, 2014-033AD
Orbit
SSO
Country
Flag of CISCIS
Related business
None
Manufacturer
Canopus Sys
Mission
Operational Commercial Communications
Bus & Motor
CUBESAT 6U, Unknown motor
Mass
~10 kg wet, ~10 kg dry
Launch date (UTC)
2014-06-19 (11 years ago)
Launch vehicle
DNEPR
Launch site
Orenburg, Russia (OREN)
Object type
Payload
Rocket body
Debris
Shape & HBR
Box, 0.1 m
Radar Cross Section
0.105 m², Medium (>0.1 m² and < 1m²)

Expand to show TLE details & history
Last TLE update: 7 hours ago

TLE from 7 hours ago
0 PERSEUS M2
1 40037U 14033AD  25347.01403992  .00004027  00000-0  37617-3 0  9994
2 40037  97.9758 289.1303 0011399 189.1727 170.9287 14.94703618622967
Epoch: 2025-12-13T00:20Z
TLE epoch observation values (Epoch: 2025-12-13T00:20:13.049Z)
Latitude
0.00007°
Longitude
-157.87148°
Altitude
594.17 km
Speed
7.559 km/s
True Right ascension
19h 16m 31s
True Declination
0° 00' 00"
Sunlit
Object was in daylight at epoch
Visualization orbit readout
Latitude
Unknown
Longitude
Unknown
Altitude
Unknown
Speed
Unknown
Apparent Right ascension
Unknown
Apparent Declination
Unknown
Sunlit
N/A
Visualization observer readout
Local Sidereal Time
05:28:42
Azimuth
Unknown
Elevation
Unknown
Doppler factor
Unknown
Orbital elements
Apogee altitude
588.249 km
Perigee altitude
572.386 km
Semi-major axis
6,958.455 km
Eccentricity
0.00114
Inclination
97.9758°
RAAN
289.1303°
Arg. of periapsis
189.1727°
True anomaly
170.94927°
Mean anomaly
170.9287°
Eccentric anomaly
170.93899°
Mean motion
3.73916 °/min
Orbital period
96.28 mins
BSTAR
0.00037617
Loading maneuver chart data...
Computing Atmospheric mass density...
Loading historical data...
Loading historical data...
Loading historical data...
Loading historical data...
Loading historical data...
Loading historical data...
Loading historical data...

Documentation

Showing up to 5 results
|